Flag for Germany Weather past 2 weeks in Biberach an der Riss, Baden-Württemberg, Germany

48 °F

Light rain. Passing clouds.

Feels Like: 43 °F
Forecast: 34 / 47 °F
Wind: 13 mph from Southwest

Location: Laupheim Airport

Current Time: Dec 1, 2015 at 7:57:02 PM

Latest Report: Dec 1, 2015 at 6:20 PM

Visibility: N/A

Pressure: 30.39 "Hg (28.48 "Hg at 536m altitude)

Humidity: 76%

Dew point: 41 °F

Location of Biberach an der RissLocation

Historic Weather in Biberach an der Riss — Graph


Biberach an der Riss temperature yesterday

Maximum temperature yesterday: 48 °F (at 11:20 AM)
Minimum temperature yesterday: 45 °F (at 3:20 AM)
Average temperature yesterday: 47 °F

Past Weeks' High & Low Weather Summary

High59 °F (Nov 18, 12:20 PM)100% (Nov 20, 2:20 PM)30.39 "Hg (Nov 20, 2:20 PM)
Low21 °F (Nov 24, 5:20 AM)48% (Nov 18, 1:20 PM)29.39 "Hg (Nov 21, 2:20 PM)
Average40 °F82%29.98 "Hg
* Reported Nov 16 6:20 PM — Dec 1 6:20 PM, Biberach an der Riss, Weather by CustomWeather, © 2015

Note: Actual official high and low records may vary slightly from our data, if they occured in-between our weather recording intervals... More about our weather records


Biberach an der Riss weather history for previous 24 hours

Time TempWeatherWind HumidityBarometerVisibility
6:20 PM
Tue, Dec 1
48 °FLight rain. Passing clouds.13 mph76%30.39 "HgN/A
5:20 PM48 °FPartly cloudy.14 mph76%30.39 "HgN/A
4:20 PM48 °FPartly sunny.16 mph76%30.36 "HgN/A
3:20 PM48 °FLight rain. Partly sunny.17 mph82%30.36 "HgN/A
2:20 PM48 °FLight rain. Partly sunny.17 mph82%30.36 "Hg5 mi
1:20 PM48 °FBroken clouds.18 mph82%30.36 "HgN/A
12:20 PM46 °FLight rain. Broken clouds.17 mph82%30.36 "HgN/A
11:20 AM46 °FLight rain. Cloudy.20 mph82%30.36 "HgN/A
10:20 AM46 °FLight rain. Cloudy.18 mph82%30.33 "HgN/A
9:20 AM45 °FLight rain. Cloudy.18 mph87%30.33 "HgN/A
8:20 AM45 °FRain. Cloudy.21 mph87%30.30 "HgN/A
7:20 AM45 °FRain. Overcast.21 mph87%30.27 "HgN/A
6:20 AM46 °FRain. Mostly cloudy.21 mph82%30.27 "HgN/A
5:20 AM46 °FRain. Mostly cloudy.22 mph82%30.24 "HgN/A
4:20 AM46 °FLight rain. Mostly cloudy.24 mph82%30.24 "HgN/A
3:20 AM46 °FRain. Mostly cloudy.24 mph82%30.24 "HgN/A
2:20 AM46 °FRain. Passing clouds.29 mph82%30.21 "HgN/A
1:20 AM48 °FLight rain. Passing clouds.26 mph71%30.18 "HgN/A
12:20 AM48 °FPassing clouds.28 mph71%30.18 "HgN/A
11:20 PM
Mon, Nov 30
48 °FPassing clouds.29 mph71%30.18 "HgN/A
10:20 PM48 °FPartly cloudy.29 mph71%30.18 "HgN/A
9:20 PM48 °FPassing clouds.24 mph66%30.18 "HgN/A
8:20 PM48 °FPassing clouds.26 mph66%30.18 "HgN/A
7:20 PM48 °FPassing clouds.24 mph66%30.18 "HgN/A
Weather by CustomWeather, © 2015

See weather overviewHow to use our weather pages